Regional Weather Roundup
Issued by NWS

Home | Current Version | Previous Version | Text Only | Print | Product List | Glossary Off
Versions: 1 2 3 4 5 6 7 8 9 10 11 12 13 14 15 16 17 18 19 20 21 22 23 24 25 26 27 28 29 30 31 32 33 34 35 36 37 38 39 40 41 42 43 44 45 46 47 48 49 50

000
ASUS43 KDTX 281701
RWRMI
MICHIGAN HOURLY REGIONAL WEATHER ROUNDUP
NATIONAL WEATHER SERVICE DETROIT/PONTIAC MI
100 PM EDT WED JUN 28 2017

NOTE: "FAIR" INDICATES FEW OR NO CLOUDS BELOW 12,000 FEET WITH NO
SIGNIFICANT WEATHER AND/OR OBSTRUCTION TO VISIBILITY.

MIZ047>049-052>055-059>063-066>070-074>076-081>083-281800-
SOUTHEAST LOWER MICHIGAN

CITY           SKY/WX    TMP DP  RH WIND       PRES   REMARKS
ADRIAN         CLOUDY    75  48  38 SW13G21   30.10F
ALMA           CLOUDY    73  50  44 SW14G25   30.03F
ANN ARBOR      CLOUDY    74  50  42 S16       30.09F
BAD AXE        CLOUDY    73  50  43 SW14      30.06F
CARO           MOSUNNY   74  51  43 S13G22    30.05S
DETROIT CITY   PTSUNNY   74  50  42 S15G21    30.09S
DETROIT        CLOUDY    76  47  35 SW15G25   30.10S
FLINT          CLOUDY    73  48  41 SW12G23   30.07S
GROSSE ILE     MOSUNNY   72  55  55 S10       30.09F
HILLSDALE      CLOUDY    73  48  40 SW12      30.10S
HOWELL         CLOUDY    73  42  32 S9G18     30.08F

CITY           SKY/WX    TMP DP  RH WIND       PRES   REMARKS
JACKSON        CLOUDY    74  48  39 SW16G25   30.08F
LAMBERTVILLE   CLOUDY    75  49  39 S8        30.10F
LANSING        CLOUDY    76  49  38 S14       30.06F
LAPEER         NOT AVBL
MASON          CLOUDY    73  51  44 SW6G16    30.07F
MONROE         CLOUDY    75  49  39 SW12G20   30.09F
MT. CLEMENS    CLOUDY    77  50  37 SW12      30.08S
PONTIAC        CLOUDY    74  45  35 S14G20    30.07F
PORT HOPE        N/A     73  51  46 SW7       30.03F
PORT HURON     CLOUDY    73  50  43 S14       30.09S
TRI CITIES     MOSUNNY   74  51  44 SW15G23   30.04F
MIDLAND        FAIR      74  46  36 S12G20    30.02F
TROY           CLOUDY    75  41  29 S9G23     30.10S
SAGINAW HB     PTSUNNY   73  43  33 SW17      30.04F
$$
MIZ043>046-050>051-056>058-064>065-071>073-077>080-281800-
SOUTHWEST LOWER MICHIGAN

CITY           SKY/WX    TMP DP  RH WIND       PRES   REMARKS
BATTLE CREEK   PTSUNNY   75  51  43 S16G22    30.06F
BENTON HARBOR  CLOUDY    74  51  44 S10G20    30.03R
BIG RAPIDS     CLOUDY    70  49  47 S12G22    29.99S
COLDWATER      CLOUDY    74  48  39 S9        30.08F
FREMONT        CLOUDY    71  50  46 S12G20    29.97F
HOLLAND        CLOUDY    75  54  47 S16       30.02S
GRAND RAPIDS   CLOUDY    74  54  49 S15       30.02S
KALAMAZOO      CLOUDY    76  48  37 S17G28    30.03F
LUDINGTON      CLOUDY    66  56  71 S18G26    29.93R
MARSHALL       CLOUDY    75  51  42 S9        30.06F
MOUNT PLEASANT CLOUDY    73  47  38 S12G17    30.01F
MUSKEGON       CLOUDY    72  52  49 S22G29    29.97F
SOUTH HAVEN    CLOUDY    73  53  50 SW12G17   30.03R
$$
MIZ016>042-281800-
NORTHERN LOWER MICHIGAN

CITY           SKY/WX    TMP DP  RH WIND       PRES   REMARKS
ALPENA         CLOUDY    74  49  41 SW12G18   29.98F
BELLAIRE       MOSUNNY   74  50  42 S9G22     29.92F
CADILLAC       CLOUDY    70  51  51 S13G23    29.97F
CHARLEVOIX     CLOUDY    73  53  48 S8G17     29.94F
FRANKFORT      CLOUDY    71  53  51 S16G22    29.91S
GAYLORD        MOSUNNY   71  49  45 S13       29.96F
GRAYLING       CLOUDY    72  51  46 S10G18    29.98F
HARBOR SPRINGS CLOUDY    73  53  48 S10       29.92F
HOUGHTON LAKE  MOSUNNY   71  49  45 SW12G25   29.99F
MANISTEE       RAIN      67  55  65 S12G18    29.93S
OSCODA         CLOUDY    74  50  42 S9G22     30.00F
PELLSTON       CLOUDY    74  51  44 S10G18    29.92F
ROGERS CITY    CLOUDY    73  50  44 W10G16    29.96F
TRAVERSE CITY  CLOUDY    75  52  44 S13G23    29.90F
$$
MIZ007>008-015-281800-
EASTERN UPPER MICHIGAN

CITY           SKY/WX    TMP DP  RH WIND       PRES   REMARKS
KINROSS        CLOUDY    73  50  44 S9G16     29.92F
MACKINAC ISLAN CLOUDY    69  52  54 S10       29.92F
NEWBERRY       CLOUDY    67  54  64 S13G18    29.89F
S. S. MARIE    MOSUNNY   73  52  47 SW12G18   29.90F
MUNISING         N/A     72  54  53 S9G24     29.81F
$$
MIZ004>006-011>014-085-281800-
CENTRAL UPPER MICHIGAN

CITY           SKY/WX    TMP DP  RH WIND       PRES   REMARKS
MANISTIQUE     CLOUDY    62  57  84 S6        29.88F
ESCANABA       CLOUDY    64  57  78 S12G18    29.82F
MENOMINEE      CLOUDY    63  56  78 S13G18    29.81F
SAWYER-GWINN   LGT RAIN  68  54  60 S18       29.81F
$$
MIZ001>003-009>011-084-281800-
WESTERN UPPER MICHIGAN

CITY           SKY/WX    TMP DP  RH WIND       PRES   REMARKS
IRON MOUNTAIN  LGT RAIN  62  57  83 SE9       29.77F
HOUGHTON       CLOUDY    65  52  62 E10       29.72F
COPPER HARBOR    N/A     69  51  52 S10       29.74F
IRONWOOD       CLOUDY    63  56  78 SE9       29.70F
$$

ABBREVIATIONS USED IN REMARKS
   TC - TEMPERATURE IN CELSIUS
  WCI - WIND CHILL INDEX
   HX - HEAT INDEX
  VSB - VISIBILITY




USA.gov is the U.S. government's official web portal to all federal, state and local government web resources and services.